Arroyo Seco, NM

12:12 AM MST on February 07, 2016 (GMT -0700)
Taos Municipal

Weather History for KSKX - November, 2012

Change the Weather History Date:

Thursday, November 15, 2012

  Actual Average Record
Temperature  
Mean Temperature 35 °F -  
Max Temperature 55 °F - - ()
Min Temperature 15 °F - - ()
Degree Days  
Heating Degree Days 30    
Moisture  
Dew Point 8 °F    
Average Humidity 51    
Maximum Humidity 68    
Minimum Humidity 14    
Precipitation  
Precipitation 0.00 in - - ()
Sea Level Pressure  
Sea Level Pressure 30.33 in    
Wind  
Wind Speed 6 mph (NNE)    
Max Wind Speed 10 mph    
Max Gust Speed -    
Visibility 10 miles    
Events      
T = Trace of Precipitation, MM = Missing Value Source: NWS Daily Summary

Daily Weather History Graph

Daily Weather History Graph

Search for Another Location

Airport or City:

Trip Planner

Search our weather history database for the weather conditions in past years. The results will help you decide how hot, cold, wet, or windy it might be!

Date:

Astronomy

Nov. 15, 2012 Rise Set
Actual Time 6:40 AM MST 4:53 PM MST
Civil Twilight 6:13 AM MST 5:21 PM MST
Nautical Twilight 5:41 AM MST 5:52 PM MST
Astronomical Twilight 5:11 AM MST 6:22 PM MST
Moon 8:37 AM MST (11/15) 6:50 PM MST (11/15)
Length of Visible Light 11h 08m
Length of Day
10h 13m
Waxing Crescent, 5% of the Moon is Illuminated
Nov 15
Waxing Crescent
Nov 20
First Quarter
Nov 28
Full
Dec 6
Last Quarter
Dec 13
New

Hourly Weather History & Observations

Time (MST) Temp. Windchill Dew Point Humidity Pressure Visibility Wind Dir Wind Speed Gust Speed Precip Events Conditions
12:15 AM 19.4 °F 10.4 °F 6.8 °F 58% 30.29 in 10.0 mi North 6.9 mph - N/A   Clear
12:35 AM 21.2 °F 14.9 °F 6.8 °F 54% 30.28 in 10.0 mi North 4.6 mph - N/A   Clear
12:55 AM 19.4 °F 9.5 °F 6.8 °F 58% 30.28 in 10.0 mi North 8.1 mph - N/A   Clear
1:15 AM 19.4 °F 12.8 °F 8.6 °F 63% 30.29 in 10.0 mi North 4.6 mph - N/A   Clear
1:35 AM 19.4 °F 10.4 °F 8.6 °F 63% 30.29 in 10.0 mi North 6.9 mph - N/A   Clear
1:55 AM 19.4 °F 14.3 °F 6.8 °F 58% 30.29 in 10.0 mi North 3.5 mph - N/A   Clear
2:15 AM 19.4 °F 10.4 °F 8.6 °F 63% 30.29 in 10.0 mi North 6.9 mph - N/A   Clear
2:35 AM 19.4 °F 12.8 °F 8.6 °F 63% 30.29 in 10.0 mi North 4.6 mph - N/A   Clear
2:55 AM 19.4 °F 12.8 °F 6.8 °F 58% 30.29 in 10.0 mi North 4.6 mph - N/A   Clear
3:15 AM 17.6 °F 7.3 °F 3.2 °F 53% 30.29 in 10.0 mi North 8.1 mph - N/A   Clear
3:35 AM 19.4 °F 9.5 °F 6.8 °F 58% 30.29 in 10.0 mi North 8.1 mph - N/A   Clear
3:55 AM 19.4 °F 9.5 °F 6.8 °F 58% 30.29 in 10.0 mi North 8.1 mph - N/A   Clear
4:15 AM 17.6 °F 10.7 °F 6.8 °F 63% 30.29 in 10.0 mi NNE 4.6 mph - N/A   Clear
4:35 AM 19.4 °F 11.5 °F 5.0 °F 54% 30.29 in 10.0 mi North 5.8 mph - N/A   Clear
4:55 AM 17.6 °F 6.4 °F 5.0 °F 58% 30.30 in 10.0 mi NNE 9.2 mph - N/A   Clear
5:15 AM 17.6 °F 7.3 °F 6.8 °F 63% 30.31 in 10.0 mi North 8.1 mph - N/A   Clear
5:35 AM 17.6 °F 8.2 °F 6.8 °F 63% 30.30 in 10.0 mi North 6.9 mph - N/A   Clear
5:55 AM 15.8 °F 4.2 °F 5.0 °F 62% 30.31 in 10.0 mi North 9.2 mph - N/A   Clear
6:15 AM 15.8 °F 5.1 °F 5.0 °F 62% 30.32 in 10.0 mi North 8.1 mph - N/A   Clear
6:35 AM 15.8 °F 7.2 °F 5.0 °F 62% 30.32 in 10.0 mi North 5.8 mph - N/A   Clear
6:55 AM 15.8 °F - 3.2 °F 58% 30.32 in 10.0 mi Calm Calm - N/A   Clear
7:15 AM 15.8 °F 5.1 °F 6.8 °F 68% 30.33 in 10.0 mi North 8.1 mph - N/A   Clear
7:35 AM 17.6 °F 8.2 °F 8.6 °F 68% 30.34 in 10.0 mi North 6.9 mph - N/A   Clear
7:55 AM 23.0 °F 17.0 °F 8.6 °F 54% 30.35 in 10.0 mi North 4.6 mph - N/A   Clear
8:15 AM 26.6 °F 19.1 °F 10.4 °F 51% 30.35 in 10.0 mi North 6.9 mph - N/A   Clear
8:35 AM 30.2 °F 25.4 °F 10.4 °F 44% 30.36 in 10.0 mi North 4.6 mph - N/A   Clear
9:15 AM 37.4 °F - 10.4 °F 33% 30.36 in 10.0 mi Calm Calm - N/A   Clear
9:35 AM 39.2 °F 37.0 °F 12.2 °F 33% 30.36 in 10.0 mi North 3.5 mph - N/A   Clear
9:55 AM 42.8 °F 40.1 °F 12.2 °F 29% 30.36 in 10.0 mi North 4.6 mph - N/A   Clear
10:15 AM 44.6 °F 40.7 °F 12.2 °F 27% 30.36 in 10.0 mi North 6.9 mph - N/A   Clear
10:35 AM - - - N/A% - - North - - N/A   Unknown
10:55 AM - - - N/A% - - North - - N/A   Unknown
11:15 AM - - - N/A% - - North - - N/A   Unknown
11:35 AM - - - N/A% - - North - - N/A   Unknown
11:55 AM - - - N/A% - - North - - N/A   Unknown
12:15 PM - - - N/A% - - North - - N/A   Unknown
12:35 PM - - - N/A% - - North - - N/A   Unknown
12:55 PM - - - N/A% - - North - - N/A   Unknown
1:15 PM - - - N/A% - - North - - N/A   Unknown
1:35 PM - - - N/A% - - North - - N/A   Unknown
1:55 PM - - - N/A% - - North - - N/A   Unknown
2:15 PM - - - N/A% - - North - - N/A   Unknown
2:35 PM - - - N/A% - - North - - N/A   Unknown
2:55 PM - - - N/A% 30.30 in - SSW 9.2 mph - N/A   Unknown
3:15 PM 55.4 °F - 6.8 °F 14% 30.30 in 10.0 mi SW 10.4 mph - N/A   Clear
3:35 PM - - - N/A% - - North - - N/A   Unknown
3:55 PM - - - N/A% - - North - - N/A   Unknown
4:15 PM - - - N/A% - - North - - N/A   Unknown
4:35 PM - - - N/A% - - North - - N/A   Unknown
4:55 PM - - - N/A% - - North - - N/A   Unknown
5:15 PM - - - N/A% - - North - - N/A   Unknown
5:35 PM - - - N/A% - - North - - N/A   Unknown
5:55 PM - - - N/A% - - North - - N/A   Unknown
6:15 PM - - - N/A% - - North - - N/A   Unknown
6:35 PM - - - N/A% - - North - - N/A   Unknown
6:55 PM - - - N/A% - - North - - N/A   Unknown
7:15 PM - - - N/A% - - North - - N/A   Unknown
7:35 PM - - - N/A% - - North - - N/A   Unknown
7:55 PM - - - N/A% - - North - - N/A   Unknown
8:15 PM - - - N/A% - - North - - N/A   Unknown
8:35 PM 35.6 °F 28.6 °F 10.4 °F 35% 30.37 in 10.0 mi ESE 9.2 mph - N/A   Unknown
8:55 PM - - - N/A% - - North - - N/A   Unknown
9:15 PM 35.6 °F 28.6 °F 12.2 °F 38% 30.38 in 10.0 mi ESE 9.2 mph - N/A   Unknown
9:35 PM 33.8 °F 27.7 °F 10.4 °F 38% 30.37 in 10.0 mi East 6.9 mph - N/A   Clear
9:55 PM 28.4 °F 20.4 °F 8.6 °F 43% 30.38 in - East 8.1 mph - N/A   Unknown
10:15 PM 26.6 °F - 8.6 °F 47% 30.38 in 10.0 mi Calm Calm - N/A   Clear
10:35 PM 30.2 °F - 8.6 °F 40% 30.38 in 10.0 mi Calm Calm - N/A   Clear
10:55 PM 30.2 °F 24.3 °F 8.6 °F 40% 30.38 in 10.0 mi ENE 5.8 mph - N/A   Clear
11:15 PM 24.8 °F 20.5 °F 5.0 °F 43% 30.39 in 10.0 mi NNW 3.5 mph - N/A   Clear
11:35 PM 28.4 °F - 6.8 °F 40% 30.39 in 10.0 mi Calm Calm - N/A   Clear
11:55 PM 32.0 °F 27.5 °F 10.4 °F 41% 30.41 in 10.0 mi East 4.6 mph - N/A   Clear